Location: Borea
(45.6167°N, 23.0167°E)
Time: 11:29:32
(UTC+00:00)

CZ-4B R/B - Pass Details

Date: 03 February 2023
Orbit: 474 x 640 km, 97.9° (Epoch: 31 March)

Event Time Altitude Azimuth Distance (km) Brightness Sun altitude
Rises 16:53:40 0° 185° (S) 2,813 6.6 -13.7°
Reaches altitude 10° 16:56:00 10° 194° (SSW) 1,888 5.8 -14.1°
Maximum altitude 16:59:47 36° 261° (W) 894 4.6 -14.8°
Drops below altitude 10° 17:03:25 10° 330° (NNW) 1,806 5.7 -15.4°
Sets 17:05:36 0° 339° (NNW) 2,673 6.5 -15.8°
